| time (UTC) | temp F | wind direction | speed knots | gust knots | rain 1hr in | rain 24hr in | rain mn in | humidity % | barometer mb |
| 20260509173838 | 64 | 122 | 2.6 | 9.6 | 0.00 | 0.00 | 0.00 | 63 | 1010.3 |
| 20260509173338 | 64 | 60 | 2.6 | 9.6 | 0.00 | 0.00 | 0.00 | 63 | 1010.5 |
| 20260509172838 | 63 | 100 | 3.5 | 9.6 | 0.00 | 0.00 | 0.00 | 63 | 1010.7 |
| 20260509172338 | 63 | 169 | 0.0 | 6.1 | 0.00 | 0.00 | 0.00 | 63 | 1010.9 |
| 20260509171838 | 63 | 102 | 1.7 | 6.1 | 0.00 | 0.00 | 0.00 | 63 | 1010.9 |
| 20260509171337 | 63 | 101 | 2.6 | 6.1 | 0.00 | 0.00 | 0.00 | 64 | 1011.0 |
| 20260509170838 | 63 | 121 | 4.3 | 6.1 | 0.00 | 0.00 | 0.00 | 64 | 1011.1 |
| 20260509165838 | 63 | 58 | 0.9 | 7.8 | 0.00 | 0.00 | 0.00 | 64 | 1011.2 |
| 20260509165337 | 62 | 55 | 1.7 | 7.8 | 0.00 | 0.00 | 0.00 | 64 | 1011.2 |
| 20260509164837 | 62 | 53 | 3.5 | 5.2 | 0.00 | 0.00 | 0.00 | 66 | 1011.2 |
| 20260509163838 | 62 | 44 | 1.7 | 5.2 | 0.00 | 0.00 | 0.00 | 64 | 1011.4 |
| 20260509163337 | 62 | 24 | 2.6 | 7.0 | 0.00 | 0.00 | 0.00 | 65 | 1011.4 |
| 20260509162837 | 62 | 82 | 1.7 | 7.0 | 0.00 | 0.00 | 0.00 | 64 | 1011.4 |
| 20260509162337 | 62 | 86 | 1.7 | 6.1 | 0.00 | 0.00 | 0.00 | 62 | 1011.2 |
| 20260509161337 | 63 | 92 | 6.1 | 7.8 | 0.00 | 0.00 | 0.00 | 63 | 1011.1 |
| 20260509160837 | 63 | 51 | 0.9 | 7.8 | 0.00 | 0.00 | 0.00 | 62 | 1011.0 |
| 20260509160337 | 63 | 111 | 2.6 | 8.7 | 0.00 | 0.00 | 0.00 | 62 | 1011.0 |
| 20260509155837 | 63 | 60 | 4.3 | 8.7 | 0.00 | 0.00 | 0.00 | 61 | 1011.0 |
| 20260509154837 | 63 | 13 | 2.6 | 7.8 | 0.00 | 0.00 | 0.00 | 62 | 1010.9 |
| 20260509154337 | 63 | 98 | 3.5 | 5.2 | 0.00 | 0.00 | 0.00 | 60 | 1011.1 |
| 20260509153837 | 63 | 89 | 3.5 | 4.3 | 0.00 | 0.00 | 0.00 | 60 | 1011.3 |
| 20260509153337 | 63 | 17 | 1.7 | 7.0 | 0.00 | 0.00 | 0.00 | 61 | 1011.3 |
| 20260509152837 | 63 | 53 | 3.5 | 7.0 | 0.00 | 0.00 | 0.00 | 60 | 1011.2 |
| 20260509152337 | 63 | 38 | 2.6 | 5.2 | 0.00 | 0.00 | 0.00 | 62 | 1011.2 |
| 20260509151837 | 62 | 101 | 2.6 | 5.2 | 0.00 | 0.00 | 0.00 | 65 | 1011.0 |
| 20260509151337 | 62 | 336 | 0.0 | 5.2 | 0.00 | 0.00 | 0.00 | 63 | 1011.1 |
| 20260509150337 | 61 | 27 | 3.5 | 7.0 | 0.00 | 0.00 | 0.00 | 64 | 1011.1 |
| 20260509145837 | 61 | 46 | 1.7 | 7.8 | 0.00 | 0.00 | 0.00 | 64 | 1011.2 |
| 20260509145337 | 61 | 13 | 7.0 | 7.8 | 0.00 | 0.00 | 0.00 | 64 | 1011.3 |
| 20260509144337 | 61 | 32 | 3.5 | 7.8 | 0.00 | 0.00 | 0.00 | 64 | 1011.2 |
| 20260509143837 | 60 | 72 | 3.5 | 7.8 | 0.00 | 0.00 | 0.00 | 65 | 1011.1 |
| 20260509143337 | 60 | 40 | 0.0 | 7.0 | 0.00 | 0.00 | 0.00 | 65 | 1011.2 |
| 20260509142837 | 59 | 360 | 3.5 | 7.0 | 0.00 | 0.00 | 0.00 | 64 | 1011.2 |
| 20260509142337 | 59 | 355 | 5.2 | 6.1 | 0.00 | 0.00 | 0.00 | 69 | 1011.3 |
| 20260509141837 | 58 | 61 | 5.2 | 5.2 | 0.00 | 0.00 | 0.00 | 68 | 1011.2 |
| 20260509141337 | 58 | 5 | 3.5 | 4.3 | 0.00 | 0.00 | 0.00 | 68 | 1011.3 |
| 20260509140837 | 58 | 53 | 1.7 | 4.3 | 0.00 | 0.00 | 0.00 | 68 | 1011.3 |
| 20260509140337 | 57 | 355 | 0.0 | 4.3 | 0.00 | 0.00 | 0.00 | 68 | 1011.4 |
| 20260509135837 | 57 | 40 | 0.9 | 4.3 | 0.00 | 0.00 | 0.00 | 69 | 1011.4 |
| 20260509135337 | 57 | 45 | 0.0 | 2.6 | 0.00 | 0.00 | 0.00 | 69 | 1011.5 |
| 20260509134837 | 57 | 45 | 0.0 | 3.5 | 0.00 | 0.00 | 0.00 | 69 | 1011.5 |
| 20260509133837 | 56 | 59 | 2.6 | 3.5 | 0.00 | 0.00 | 0.00 | 69 | 1011.3 |
| 20260509133337 | 56 | 38 | 1.7 | 3.5 | 0.00 | 0.00 | 0.00 | 69 | 1011.3 |
| 20260509132837 | 56 | 34 | 1.7 | 2.6 | 0.00 | 0.00 | 0.00 | 70 | 1011.3 |
| 20260509132336 | 56 | 20 | 0.9 | 3.5 | 0.00 | 0.00 | 0.00 | 69 | 1011.4 |
| 20260509131837 | 56 | 20 | 0.0 | 3.5 | 0.00 | 0.00 | 0.00 | 69 | 1011.3 |
| 20260509131337 | 56 | 38 | 0.0 | 3.5 | 0.00 | 0.00 | 0.00 | 70 | 1011.2 |
| 20260509130837 | 55 | 45 | 1.7 | 3.5 | 0.00 | 0.00 | 0.00 | 70 | 1011.0 |
| 20260509130337 | 56 | 26 | 2.6 | 3.5 | 0.00 | 0.00 | 0.00 | 71 | 1011.0 |
| 20260509125837 | 56 | 30 | 0.9 | 3.5 | 0.00 | 0.00 | 0.00 | 70 | 1011.1 |
| 20260509125337 | 56 | 25 | 2.6 | 3.5 | 0.00 | 0.00 | 0.00 | 71 | 1011.4 |
| 20260509124837 | 56 | 23 | 0.0 | 2.6 | 0.00 | 0.00 | 0.00 | 70 | 1011.5 |
| 20260509124337 | 56 | 349 | 0.9 | 3.5 | 0.00 | 0.00 | 0.00 | 70 | 1011.6 |
| 20260509123837 | 55 | 360 | 0.9 | 6.1 | 0.00 | 0.00 | 0.00 | 69 | 1011.3 |
| 20260509123337 | 56 | 342 | 0.9 | 6.1 | 0.00 | 0.00 | 0.00 | 68 | 1011.6 |
| 20260509122837 | 56 | 30 | 2.6 | 5.2 | 0.00 | 0.00 | 0.00 | 68 | 1011.5 |
| 20260509122337 | 56 | 21 | 1.7 | 3.5 | 0.00 | 0.00 | 0.00 | 68 | 1011.5 |
| 20260509121836 | 56 | 29 | 3.5 | 3.5 | 0.00 | 0.00 | 0.00 | 67 | 1011.6 |
| 20260509121336 | 55 | 28 | 0.9 | 2.6 | 0.00 | 0.00 | 0.00 | 68 | 1011.4 |
| 20260509120836 | 55 | 28 | 0.9 | 1.7 | 0.00 | 0.00 | 0.00 | 67 | 1011.3 |
| 20260509120336 | 55 | 28 | 0.9 | 1.7 | 0.00 | 0.00 | 0.00 | 67 | 1011.3 |
| 20260509115836 | 55 | 28 | 0.0 | 3.5 | 0.00 | 0.00 | 0.00 | 67 | 1011.4 |
| 20260509115336 | 55 | 28 | 1.7 | 3.5 | 0.00 | 0.00 | 0.00 | 66 | 1011.3 |
| 20260509114836 | 56 | 5 | 1.7 | 3.5 | 0.00 | 0.00 | 0.00 | 66 | 1011.5 |
| 20260509114336 | 55 | 343 | 0.9 | 4.3 | 0.00 | 0.00 | 0.00 | 65 | 1011.4 |
| 20260509113836 | 56 | 9 | 2.6 | 4.3 | 0.00 | 0.00 | 0.00 | 66 | 1011.5 |
| 20260509113336 | 56 | 360 | 0.0 | 1.7 | 0.00 | 0.00 | 0.00 | 66 | 1011.5 |
| 20260509112836 | 56 | 360 | 0.0 | 1.7 | 0.00 | 0.00 | 0.00 | 65 | 1011.5 |
| 20260509112337 | 56 | 360 | 0.0 | 1.7 | 0.00 | 0.00 | 0.00 | 63 | 1011.5 |
| 20260509111836 | 56 | 360 | 0.0 | 0.0 | 0.00 | 0.00 | 0.00 | 63 | 1011.5 |
| 20260509111336 | 56 | 360 | 0.0 | 0.0 | 0.00 | 0.00 | 0.00 | 63 | 1011.4 |
| 20260509110836 | 56 | 360 | 0.0 | 0.9 | 0.00 | 0.00 | 0.00 | 62 | 1011.4 |
| 20260509110336 | 56 | 360 | 0.0 | 0.9 | 0.00 | 0.00 | 0.00 | 61 | 1011.3 |
| 20260509105836 | 56 | 360 | 0.0 | 0.9 | 0.00 | 0.00 | 0.00 | 61 | 1011.4 |
| 20260509105336 | 56 | 360 | 0.0 | 2.6 | 0.00 | 0.00 | 0.00 | 60 | 1011.3 |
| 20260509104336 | 56 | 360 | 1.7 | 1.7 | 0.00 | 0.00 | 0.00 | 59 | 1011.1 |
| 20260509103836 | 57 | 360 | 0.9 | 0.9 | 0.00 | 0.00 | 0.00 | 59 | 1011.2 |
| 20260509102836 | 57 | 360 | 0.9 | 3.5 | 0.00 | 0.00 | 0.00 | 58 | 1011.2 |
| 20260509102336 | 57 | 355 | 0.9 | 4.3 | 0.00 | 0.00 | 0.00 | 58 | 1011.1 |
| 20260509101836 | 58 | 355 | 1.7 | 4.3 | 0.00 | 0.00 | 0.00 | 57 | 1011.1 |
| 20260509101336 | 58 | 16 | 1.7 | 3.5 | 0.00 | 0.00 | 0.00 | 56 | 1011.0 |
| 20260509100836 | 58 | 331 | 0.9 | 6.1 | 0.00 | 0.00 | 0.00 | 55 | 1010.7 |
| 20260509100336 | 58 | 260 | 0.9 | 6.1 | 0.00 | 0.00 | 0.00 | 54 | 1010.6 |
| 20260509095836 | 58 | 217 | 2.6 | 5.2 | 0.00 | 0.00 | 0.00 | 54 | 1010.6 |
| 20260509095336 | 58 | 264 | 0.9 | 7.0 | 0.00 | 0.00 | 0.00 | 54 | 1010.7 |
| 20260509094836 | 58 | 261 | 5.2 | 7.0 | 0.00 | 0.00 | 0.00 | 54 | 1010.8 |
| 20260509094336 | 58 | 225 | 4.3 | 4.3 | 0.00 | 0.00 | 0.00 | 54 | 1010.9 |
| 20260509093836 | 58 | 231 | 3.5 | 8.7 | 0.00 | 0.00 | 0.00 | 54 | 1010.8 |
| 20260509093336 | 58 | 254 | 1.7 | 8.7 | 0.00 | 0.00 | 0.00 | 53 | 1010.7 |
| 20260509092836 | 58 | 238 | 2.6 | 4.3 | 0.00 | 0.00 | 0.00 | 53 | 1010.8 |
| 20260509091836 | 58 | 238 | 2.6 | 7.8 | 0.00 | 0.00 | 0.00 | 53 | 1010.9 |
| 20260509091336 | 58 | 259 | 1.7 | 7.8 | 0.00 | 0.00 | 0.00 | 53 | 1010.9 |
| 20260509090836 | 58 | 226 | 5.2 | 7.8 | 0.00 | 0.00 | 0.00 | 53 | 1010.9 |
| 20260509090335 | 58 | 229 | 2.6 | 7.8 | 0.00 | 0.00 | 0.00 | 53 | 1010.8 |
| 20260509085835 | 58 | 205 | 1.7 | 8.7 | 0.00 | 0.00 | 0.00 | 53 | 1010.8 |
| 20260509085336 | 58 | 204 | 1.7 | 8.7 | 0.00 | 0.00 | 0.00 | 53 | 1011.0 |
| 20260509084836 | 58 | 226 | 1.7 | 7.0 | 0.00 | 0.00 | 0.00 | 53 | 1011.0 |
| 20260509083835 | 58 | 237 | 4.3 | 7.0 | 0.00 | 0.00 | 0.00 | 53 | 1011.0 |
| 20260509083336 | 58 | 207 | 3.5 | 8.7 | 0.00 | 0.00 | 0.00 | 53 | 1011.0 |
| 20260509082836 | 58 | 202 | 2.6 | 8.7 | 0.00 | 0.00 | 0.00 | 54 | 1011.0 |
| 20260509082335 | 58 | 249 | 6.1 | 10.4 | 0.00 | 0.00 | 0.00 | 54 | 1011.1 |
| 20260509081835 | 58 | 212 | 7.0 | 10.4 | 0.00 | 0.00 | 0.00 | 53 | 1011.0 |
| 20260509081336 | 58 | 250 | 10.4 | 10.4 | 0.00 | 0.00 | 0.00 | 54 | 1011.1 |
| 20260509080836 | 58 | 207 | 4.3 | 5.2 | 0.00 | 0.00 | 0.00 | 54 | 1011.1 |
| 20260509080336 | 58 | 215 | 2.6 | 7.0 | 0.00 | 0.00 | 0.00 | 54 | 1011.1 |
| 20260509075836 | 59 | 217 | 4.3 | 7.8 | 0.00 | 0.00 | 0.00 | 54 | 1011.3 |
| 20260509075336 | 59 | 250 | 6.1 | 7.8 | 0.00 | 0.00 | 0.00 | 53 | 1011.3 |
| 20260509074836 | 59 | 225 | 3.5 | 6.1 | 0.00 | 0.00 | 0.00 | 53 | 1011.2 |
| 20260509074336 | 59 | 203 | 4.3 | 7.0 | 0.00 | 0.00 | 0.00 | 53 | 1011.3 |
| 20260509073836 | 59 | 240 | 2.6 | 8.7 | 0.00 | 0.00 | 0.00 | 53 | 1011.3 |
| 20260509073335 | 59 | 222 | 3.5 | 8.7 | 0.00 | 0.00 | 0.00 | 53 | 1011.3 |
| 20260509072835 | 59 | 253 | 3.5 | 6.1 | 0.00 | 0.00 | 0.00 | 54 | 1011.3 |
| 20260509071835 | 59 | 227 | 2.6 | 8.7 | 0.00 | 0.00 | 0.00 | 53 | 1011.3 |
| 20260509071335 | 59 | 215 | 4.3 | 7.8 | 0.00 | 0.00 | 0.00 | 53 | 1011.4 |
| 20260509070835 | 59 | 221 | 1.7 | 7.8 | 0.00 | 0.00 | 0.00 | 53 | 1011.4 |
| 20260509070336 | 59 | 225 | 6.1 | 7.8 | 0.00 | 0.00 | 0.00 | 53 | 1011.4 |
| 20260509064835 | 59 | 221 | 1.7 | 7.8 | 0.00 | 0.00 | 0.00 | 54 | 1011.6 |
| 20260509064335 | 59 | 232 | 1.7 | 7.8 | 0.00 | 0.00 | 0.00 | 54 | 1011.5 |
| 20260509063835 | 59 | 163 | 1.7 | 7.8 | 0.00 | 0.00 | 0.00 | 54 | 1011.6 |
| 20260509063335 | 59 | 231 | 4.3 | 8.7 | 0.00 | 0.00 | 0.00 | 54 | 1011.7 |
| 20260509062835 | 59 | 202 | 3.5 | 8.7 | 0.00 | 0.00 | 0.00 | 54 | 1011.8 |
| 20260509062335 | 59 | 236 | 1.7 | 8.7 | 0.00 | 0.00 | 0.00 | 54 | 1011.8 |
| 20260509061835 | 59 | 208 | 1.7 | 8.7 | 0.00 | 0.00 | 0.00 | 54 | 1011.8 |
| 20260509060835 | 59 | 252 | 4.3 | 8.7 | 0.00 | 0.00 | 0.00 | 54 | 1012.0 |
| 20260509060335 | 59 | 214 | 2.6 | 7.0 | 0.00 | 0.00 | 0.00 | 54 | 1012.0 |
| 20260509055835 | 59 | 241 | 4.3 | 7.0 | 0.00 | 0.00 | 0.00 | 55 | 1012.1 |
| 20260509054335 | 59 | 244 | 2.6 | 6.1 | 0.00 | 0.00 | 0.00 | 55 | 1012.1 |
| 20260509053835 | 59 | 217 | 3.5 | 7.0 | 0.00 | 0.00 | 0.00 | 55 | 1012.1 |
| 20260509052835 | 59 | 214 | 4.3 | 9.6 | 0.00 | 0.00 | 0.00 | 55 | 1012.1 |
| 20260509051835 | 59 | 205 | 1.7 | 7.0 | 0.00 | 0.00 | 0.00 | 55 | 1012.0 |
| 20260509050335 | 58 | 248 | 2.6 | 6.1 | 0.00 | 0.00 | 0.00 | 55 | 1011.9 |
| 20260509045835 | 58 | 257 | 3.5 | 7.8 | 0.00 | 0.00 | 0.00 | 56 | 1011.8 |
| 20260509045335 | 58 | 240 | 2.6 | 7.8 | 0.00 | 0.00 | 0.00 | 56 | 1011.7 |
| 20260509044835 | 58 | 219 | 0.9 | 7.8 | 0.00 | 0.00 | 0.00 | 57 | 1011.7 |
| 20260509044335 | 57 | 242 | 7.8 | 7.8 | 0.00 | 0.00 | 0.00 | 57 | 1011.7 |
| 20260509043835 | 57 | 213 | 2.6 | 7.8 | 0.00 | 0.00 | 0.00 | 57 | 1011.7 |
| 20260509042835 | 57 | 234 | 4.3 | 7.0 | 0.00 | 0.00 | 0.00 | 58 | 1011.8 |
| 20260509042335 | 57 | 224 | 3.5 | 7.0 | 0.00 | 0.00 | 0.00 | 58 | 1011.9 |
| 20260509041835 | 56 | 276 | 3.5 | 4.3 | 0.00 | 0.00 | 0.00 | 58 | 1011.9 |
| 20260509041335 | 56 | 229 | 2.6 | 4.3 | 0.00 | 0.00 | 0.00 | 59 | 1011.9 |
| 20260509040835 | 56 | 237 | 0.9 | 4.3 | 0.00 | 0.00 | 0.00 | 59 | 1011.8 |
| 20260509040335 | 56 | 213 | 1.7 | 3.5 | 0.00 | 0.00 | 0.00 | 59 | 1011.8 |
| 20260509034835 | 55 | 240 | 1.7 | 4.3 | 0.00 | 0.00 | 0.00 | 60 | 1011.8 |
| 20260509034335 | 55 | 241 | 1.7 | 7.0 | 0.00 | 0.00 | 0.00 | 59 | 1011.8 |
| 20260509033834 | 55 | 252 | 4.3 | 7.0 | 0.00 | 0.00 | 0.00 | 59 | 1011.9 |
| 20260509033335 | 56 | 225 | 1.7 | 5.2 | 0.00 | 0.00 | 0.00 | 59 | 1012.0 |
| 20260509032835 | 56 | 204 | 0.9 | 3.5 | 0.00 | 0.00 | 0.00 | 58 | 1012.1 |
| 20260509032335 | 56 | 204 | 0.0 | 3.5 | 0.00 | 0.00 | 0.00 | 58 | 1012.1 |
| 20260509031835 | 56 | 277 | 0.0 | 0.0 | 0.00 | 0.00 | 0.00 | 57 | 1012.1 |
| 20260509031335 | 57 | 276 | 0.0 | 0.0 | 0.00 | 0.00 | 0.00 | 57 | 1012.1 |
| 20260509030835 | 57 | 277 | 0.0 | 0.9 | 0.00 | 0.00 | 0.00 | 58 | 1012.1 |
| 20260509030335 | 57 | 277 | 0.0 | 2.6 | 0.00 | 0.00 | 0.00 | 58 | 1012.2 |
| 20260509025834 | 57 | 277 | 0.0 | 2.6 | 0.00 | 0.00 | 0.00 | 57 | 1012.2 |
| 20260509025334 | 57 | 32 | 0.0 | 2.6 | 0.00 | 0.00 | 0.00 | 56 | 1012.2 |
| 20260509024834 | 58 | 32 | 1.7 | 2.6 | 0.00 | 0.00 | 0.00 | 55 | 1012.3 |
| 20260509024335 | 58 | 32 | 0.0 | 0.9 | 0.00 | 0.00 | 0.00 | 55 | 1012.3 |
| 20260509023834 | 58 | 32 | 0.0 | 0.9 | 0.00 | 0.00 | 0.00 | 55 | 1012.4 |
| 20260509023335 | 58 | 32 | 0.0 | 0.0 | 0.00 | 0.00 | 0.00 | 55 | 1012.3 |
| 20260509022834 | 58 | 32 | 0.0 | 0.0 | 0.00 | 0.00 | 0.00 | 55 | 1012.4 |
| 20260509021834 | 59 | 32 | 0.0 | 0.0 | 0.00 | 0.00 | 0.00 | 53 | 1012.5 |
| 20260509021334 | 59 | 32 | 0.0 | 0.0 | 0.00 | 0.00 | 0.00 | 52 | 1012.5 |
| 20260509020834 | 59 | 32 | 0.0 | 0.0 | 0.00 | 0.00 | 0.00 | 52 | 1012.5 |
| 20260509020334 | 59 | 32 | 0.0 | 0.0 | 0.00 | 0.00 | 0.00 | 52 | 1012.4 |
| 20260509014335 | 60 | 32 | 0.0 | 0.9 | 0.00 | 0.00 | 0.00 | 51 | 1012.1 |
| 20260509013834 | 60 | 32 | 0.0 | 0.9 | 0.00 | 0.00 | 0.00 | 51 | 1012.1 |
| 20260509013334 | 60 | 32 | 0.9 | 1.7 | 0.00 | 0.00 | 0.00 | 51 | 1012.2 |
| 20260509012834 | 60 | 32 | 0.0 | 1.7 | 0.00 | 0.00 | 0.00 | 51 | 1012.1 |
| 20260509011834 | 61 | 32 | 0.0 | 0.9 | 0.00 | 0.00 | 0.00 | 50 | 1012.1 |
| 20260509011334 | 62 | 32 | 0.0 | 0.0 | 0.00 | 0.00 | 0.00 | 50 | 1012.1 |
| 20260509010334 | 62 | 32 | 0.0 | 1.7 | 0.00 | 0.00 | 0.00 | 49 | 1012.1 |
| 20260509005834 | 63 | 32 | 0.0 | 1.7 | 0.00 | 0.00 | 0.00 | 49 | 1012.0 |
| 20260509005334 | 63 | 32 | 0.9 | 1.7 | 0.00 | 0.00 | 0.00 | 49 | 1012.2 |
| 20260509004834 | 63 | 32 | 0.0 | 0.9 | 0.00 | 0.00 | 0.00 | 48 | 1012.1 |
| 20260509003834 | 64 | 32 | 0.0 | 0.9 | 0.00 | 0.00 | 0.00 | 46 | 1012.1 |
| 20260509002834 | 65 | 32 | 0.0 | 1.7 | 0.00 | 0.00 | 0.00 | 45 | 1012.2 |
| 20260509002334 | 65 | 32 | 0.0 | 1.7 | 0.00 | 0.00 | 0.00 | 45 | 1012.3 |
| 20260509001834 | 66 | 32 | 0.0 | 1.7 | 0.00 | 0.00 | 0.00 | 44 | 1012.3 |
| 20260509000834 | 66 | 32 | 0.0 | 0.0 | 0.00 | 0.00 | 0.00 | 43 | 1012.1 |
| 20260508235334 | 67 | 32 | 0.9 | 2.6 | 0.00 | 0.00 | 0.00 | 40 | 1011.6 |
| 20260508234834 | 67 | 32 | 1.7 | 4.3 | 0.00 | 0.00 | 0.00 | 40 | 1011.5 |
| 20260508234334 | 67 | 28 | 0.0 | 4.3 | 0.00 | 0.00 | 0.00 | 40 | 1011.5 |
| 20260508233834 | 67 | 33 | 0.9 | 3.5 | 0.00 | 0.00 | 0.00 | 40 | 1011.5 |
| 20260508232834 | 67 | 360 | 3.5 | 3.5 | 0.00 | 0.00 | 0.00 | 42 | 1011.6 |
| 20260508232334 | 67 | 53 | 0.9 | 2.6 | 0.00 | 0.00 | 0.00 | 41 | 1011.5 |
| 20260508231834 | 68 | 48 | 1.7 | 2.6 | 0.00 | 0.00 | 0.00 | 39 | 1011.4 |
| 20260508231333 | 68 | 48 | 0.9 | 3.5 | 0.00 | 0.00 | 0.00 | 40 | 1011.5 |
| 20260508225834 | 68 | 34 | 0.9 | 4.3 | 0.00 | 0.00 | 0.00 | 39 | 1011.4 |
| 20260508225334 | 68 | 324 | 2.6 | 4.3 | 0.00 | 0.00 | 0.00 | 38 | 1011.3 |
| 20260508224834 | 68 | 44 | 2.6 | 4.3 | 0.00 | 0.00 | 0.00 | 39 | 1011.3 |
| 20260508224334 | 68 | 26 | 0.0 | 6.1 | 0.00 | 0.00 | 0.00 | 38 | 1011.3 |
| 20260508223834 | 68 | 33 | 2.6 | 6.1 | 0.00 | 0.00 | 0.00 | 38 | 1011.3 |
| 20260508223334 | 68 | 22 | 3.5 | 4.3 | 0.00 | 0.00 | 0.00 | 38 | 1011.3 |
| 20260508222834 | 68 | 45 | 0.0 | 4.3 | 0.00 | 0.00 | 0.00 | 38 | 1011.3 |
| 20260508222333 | 68 | 322 | 0.9 | 4.3 | 0.00 | 0.00 | 0.00 | 38 | 1011.3 |
| 20260508221833 | 68 | 342 | 1.7 | 3.5 | 0.00 | 0.00 | 0.00 | 37 | 1011.3 |
| 20260508221334 | 68 | 355 | 1.7 | 3.5 | 0.00 | 0.00 | 0.00 | 38 | 1011.3 |
| 20260508220834 | 68 | 245 | 1.7 | 7.0 | 0.00 | 0.00 | 0.00 | 36 | 1011.3 |
| 20260508220334 | 69 | 225 | 2.6 | 7.0 | 0.00 | 0.00 | 0.00 | 37 | 1011.3 |
| 20260508215834 | 69 | 69 | 3.5 | 5.2 | 0.00 | 0.00 | 0.00 | 35 | 1011.2 |
| 20260508215334 | 69 | 248 | 2.6 | 5.2 | 0.00 | 0.00 | 0.00 | 36 | 1011.2 |
| 20260508214833 | 69 | 249 | 3.5 | 5.2 | 0.00 | 0.00 | 0.00 | 37 | 1011.2 |
| 20260508214333 | 69 | 45 | 2.6 | 9.6 | 0.00 | 0.00 | 0.00 | 37 | 1011.3 |
| 20260508213833 | 69 | 76 | 0.9 | 9.6 | 0.00 | 0.00 | 0.00 | 36 | 1011.2 |
| 20260508212834 | 68 | 5 | 2.6 | 7.0 | 0.00 | 0.00 | 0.00 | 36 | 1011.3 |
| 20260508212333 | 68 | 355 | 1.7 | 7.8 | 0.00 | 0.00 | 0.00 | 36 | 1011.2 |
| 20260508211833 | 68 | 78 | 4.3 | 7.8 | 0.00 | 0.00 | 0.00 | 37 | 1011.4 |
| 20260508210833 | 69 | 242 | 2.6 | 7.0 | 0.00 | 0.00 | 0.00 | 35 | 1011.7 |
| 20260508205834 | 69 | 323 | 2.6 | 8.7 | 0.00 | 0.00 | 0.00 | 35 | 1011.6 |
| 20260508205333 | 69 | 309 | 2.6 | 12.2 | 0.00 | 0.00 | 0.00 | 34 | 1011.6 |
| 20260508204333 | 69 | 88 | 2.6 | 7.8 | 0.00 | 0.00 | 0.00 | 37 | 1011.7 |
| 20260508203833 | 69 | 64 | 4.3 | 7.8 | 0.00 | 0.00 | 0.00 | 35 | 1011.7 |
| 20260508203333 | 69 | 37 | 1.7 | 9.6 | 0.00 | 0.00 | 0.00 | 35 | 1011.8 |
| 20260508202833 | 70 | 209 | 3.5 | 11.3 | 0.00 | 0.00 | 0.00 | 33 | 1011.8 |
| 20260508202333 | 70 | 173 | 0.9 | 11.3 | 0.00 | 0.00 | 0.00 | 33 | 1011.9 |
| 20260508201333 | 70 | 36 | 1.7 | 8.7 | 0.00 | 0.00 | 0.00 | 32 | 1011.9 |
| 20260508200833 | 70 | 187 | 2.6 | 14.8 | 0.00 | 0.00 | 0.00 | 33 | 1011.8 |
| 20260508200333 | 70 | 217 | 2.6 | 14.8 | 0.00 | 0.00 | 0.00 | 32 | 1012.1 |
| 20260508194833 | 68 | 227 | 2.6 | 13.0 | 0.00 | 0.00 | 0.00 | 34 | 1012.1 |
| 20260508194333 | 68 | 191 | 3.5 | 13.0 | 0.00 | 0.00 | 0.00 | 33 | 1012.2 |
| 20260508193333 | 69 | 146 | 1.7 | 7.8 | 0.00 | 0.00 | 0.00 | 32 | 1012.2 |
| 20260508192833 | 69 | 238 | 2.6 | 7.8 | 0.00 | 0.00 | 0.00 | 33 | 1012.2 |
| 20260508192333 | 69 | 259 | 1.7 | 7.8 | 0.00 | 0.00 | 0.00 | 34 | 1012.3 |
| 20260508191833 | 69 | 254 | 3.5 | 10.4 | 0.00 | 0.00 | 0.00 | 32 | 1012.4 |
| 20260508191333 | 69 | 331 | 7.0 | 11.3 | 0.00 | 0.00 | 0.00 | 33 | 1012.6 |
| 20260508190833 | 69 | 182 | 2.6 | 11.3 | 0.00 | 0.00 | 0.00 | 33 | 1012.7 |
| 20260508190333 | 69 | 223 | 7.8 | 11.3 | 0.00 | 0.00 | 0.00 | 33 | 1012.6 |
| 20260508185833 | 69 | 279 | 7.0 | 10.4 | 0.00 | 0.00 | 0.00 | 33 | 1012.8 |
| 20260508185333 | 69 | 248 | 2.6 | 7.0 | 0.00 | 0.00 | 0.00 | 33 | 1012.9 |
| 20260508184833 | 69 | 252 | 3.5 | 7.0 | 0.00 | 0.00 | 0.00 | 33 | 1012.9 |
| 20260508184333 | 69 | 200 | 1.7 | 13.0 | 0.00 | 0.00 | 0.00 | 33 | 1012.9 |
| 20260508183333 | 69 | 231 | 6.1 | 9.6 | 0.00 | 0.00 | 0.00 | 33 | 1013.2 |
| 20260508182833 | 70 | 5 | 2.6 | 10.4 | 0.00 | 0.00 | 0.00 | 33 | 1013.2 |
| 20260508182333 | 70 | 194 | 5.2 | 11.3 | 0.00 | 0.00 | 0.00 | 32 | 1013.3 |
| 20260508181833 | 70 | 271 | 3.5 | 12.2 | 0.00 | 0.00 | 0.00 | 32 | 1013.3 |
| 20260508181333 | 70 | 50 | 6.1 | 14.8 | 0.00 | 0.00 | 0.00 | 31 | 1013.4 |
| 20260508180333 | 70 | 9 | 4.3 | 12.2 | 0.00 | 0.00 | 0.00 | 32 | 1013.5 |
| 20260508175833 | 70 | 28 | 2.6 | 12.2 | 0.00 | 0.00 | 0.00 | 32 | 1013.5 |
| 20260508175333 | 70 | 323 | 7.8 | 13.0 | 0.00 | 0.00 | 0.00 | 32 | 1013.8 |
| 20260508174833 | 70 | 284 | 7.0 | 13.0 | 0.00 | 0.00 | 0.00 | 32 | 1013.9 |
| 20260508174333 | 69 | 229 | 0.9 | 10.4 | 0.00 | 0.00 | 0.00 | 33 | 1014.0 |